Regional Weather Roundup
Issued by NWS

Home | Current Version | Previous Version | Graphics & Text | Print | Product List | Glossary On
Versions: 1 2 3 4 5 6 7 8 9 10 11 12 13 14 15 16 17 18 19 20 21 22 23 24 25 26 27 28 29 30 31 32 33 34 35 36 37 38 39 40 41 42 43 44 45 46 47 48 49 50
956
ASUS44 KJAN 211203
RWRMS

MISSISSIPPI HOURLY WEATHER ROUNDUP
NATIONAL WEATHER SERVICE JACKSON MS
600 AM CST SUN DEC 21 2014

NOTE: "FAIR: INDICATES FEW OR NO CLOUDS BELOW 12,000 FEET WITH NO
SIGNIFICANT WEATHER AND/OR OBSTRUCTIONS TO VISIBILITY.

MSZ001>002-007>008-010>013-018>021-025>028-034>036-211300-
NORTHWEST MISSISSIPPI

CITY           SKY/WX    TMP DP  RH WIND       PRES   REMARKS
CLARKSDALE     FAIR      32  32 100 CALM      30.20S
CLEVELAND      FAIR      33  33  99 E5        30.18R WCI  29
GREENWOOD      CLEAR     34  31  88 NE5       30.18S WCI  30
6HR MIN TEMP:  32; 6HR MAX TEMP:  38;

GREENVILLE     CLEAR     34  32  92 E5        30.17S WCI  30
6HR MIN TEMP:  34; 6HR MAX TEMP:  38;

GRENADA        FAIR      32  30  93 CALM      30.20S
OLIVE BRANCH   CLEAR     30  32 100 CALM      30.21S
OXFORD         FAIR      30  28  93 E5        30.21S WCI  25
TUNICA         SUNNY     32  30  93 CALM      30.21F
$$

MSZ003>006-009-014>017-022>024-029>033-037>039-211300-
NORTHEAST MISSISSIPPI

CITY           SKY/WX    TMP DP  RH WIND       PRES   REMARKS
COLUMBUS AFB   NOT AVBL
CORINTH        FAIR      28  27  93 CALM      30.21R
GOLDN TRIANGLE CLEAR     30  28  93 N5        30.17S WCI  25
STARKVILLE     FAIR      32  32 100 CALM      30.19R
TUPELO         CLEAR     29  26  89 NE8       30.20R WCI  21
6HR MIN TEMP:  29; 6HR MAX TEMP:  34;

$$

MSZ040-058-211300-
CENTRAL MISSISSIPPI

CITY           SKY/WX    TMP DP  RH WIND       PRES   REMARKS
JACKSON INTL   CLEAR     38  35  89 NE6       30.15S WCI  33
6HR MIN TEMP:  36; 6HR MAX TEMP:  41;

JACKSON HAWKNS CLEAR     36  34  92 CALM      30.15S
6HR MIN TEMP:  35; 6HR MAX TEMP:  42;

MERIDIAN KEY   CLOUDY    38  36  92 N5        30.16S WCI  34
6HR MIN TEMP:  32; 6HR MAX TEMP:  38;

MERIDIAN NAS   CLOUDY    38  35  89 CALM      30.17R
6HR MIN TEMP:  32; 6HR MAX TEMP:  38;

RAYMOND        FAIR      32  27  80 CALM      30.15S FOG
VICKSBURG      CLEAR     33  32  96 CALM      30.17R FOG
6HR MIN TEMP:  33; 6HR MAX TEMP:  41;

$$

MSZ059>079-211300-
SOUTH MISSISSIPPI

CITY           SKY/WX    TMP DP  RH WIND       PRES   REMARKS
HATTIESBURG    CLOUDY    45  42  89 NE3       30.14S
6HR MIN TEMP:  43; 6HR MAX TEMP:  47;

MCCOMB         CLEAR     41  38  89 VRB5      30.12R
6HR MIN TEMP:  41; 6HR MAX TEMP:  44;

NATCHEZ        CLEAR     34  30  86 CALM      30.13F
6HR MIN TEMP:  34; 6HR MAX TEMP:  39;

PINE BELT      CLEAR     39  36  87 CALM      30.14S
6HR MIN TEMP:  39; 6HR MAX TEMP:  45;

$$

MSZ080>082-211300-
COASTAL MISSISSIPPI

CITY           SKY/WX    TMP DP  RH WIND       PRES   REMARKS
BILOXI         CLOUDY    50  48  93 NE6       30.10F
6HR MIN TEMP:  50; 6HR MAX TEMP:  51;

PASCAGOULA     CLOUDY    51  48  89 N3        30.11S
6HR MIN TEMP:  50; 6HR MAX TEMP:  51;

GULFPORT       CLOUDY    50  46  86 NE6       30.10F
6HR MIN TEMP:  50; 6HR MAX TEMP:  51;

$$



USA.gov is the U.S. government's official web portal to all federal, state and local government web resources and services.